Location: Albany
(35.0000°S, 118.0000°E)
Time: 10:22:56
(UTC-04:00)

Atlas Centaur 2 - Visible Passes

Search period start: 02 August 2015 00:00
Search period end: 12 August 2015 00:00
Orbit: 460 x 1320 km, 30.4° (Epoch: 01 August)

Date Brightness Start Highest point End Pass type
(mag) Time Alt. Az. Time Alt. Az. Time Alt. Az.
02 Aug 2.1 06:49:10 10° WNW 06:53:02 45° N 06:54:57 29° ENE visible
02 Aug 4.6 08:37:18 10° W 08:37:40 12° WNW 08:37:40 12° WNW visible
03 Aug 2.1 06:47:03 10° WNW 06:50:52 46° N 06:52:53 27° ENE visible
03 Aug 4.6 08:35:17 10° WNW 08:35:36 12° WNW 08:35:36 12° WNW visible
04 Aug 2.1 06:44:58 10° WNW 06:48:41 45° N 06:50:52 25° ENE visible
04 Aug 4.6 08:33:19 10° WNW 08:33:35 11° WNW 08:33:35 11° WNW visible
05 Aug 2.2 06:42:53 10° WNW 06:46:31 42° N 06:48:52 22° NE visible
05 Aug 4.6 08:31:25 10° WNW 08:31:35 11° WNW 08:31:35 11° WNW visible
06 Aug 2.3 06:40:49 10° WNW 06:44:20 38° N 06:46:56 19° NE visible
06 Aug 4.6 08:29:38 10° WNW 08:29:39 10° WNW 08:29:39 10° WNW visible
07 Aug 2.5 06:38:47 10° WNW 06:42:10 33° N 06:45:02 15° NE visible
08 Aug 2.8 06:36:47 10° WNW 06:39:58 28° NNW 06:43:13 11° NE visible
09 Aug 3.1 06:34:50 10° WNW 06:37:46 22° NNW 06:40:56 10° NE visible
10 Aug 3.5 06:33:01 10° WNW 06:35:33 18° NNW 06:38:13 10° NNE visible
11 Aug 3.8 06:31:24 10° NW 06:33:20 14° NNW 06:35:15 10° N visible
